Regional Weather Roundup
Issued by NWS Mt. Holly, NJ

Home | Current Version | Previous Version | Text Only | Print | Product List | Glossary On
Versions: 1 2 3 4 5 6 7 8 9 10 11 12 13 14 15 16 17 18 19 20 21 22 23 24 25 26 27 28 29 30 31 32 33 34 35 36 37 38 39 40 41 42 43 44 45 46 47 48 49 50
000
ASUS41 KPHI 051412
RWRPHI

REGIONAL WEATHER ROUNDUP
NATIONAL WEATHER SERVICE MOUNT HOLLY NJ
1000 AM EDT SAT SEP 05 2015

NOTE:  "FAIR" INDICATES FEW OR NO CLOUDS BELOW 12,000 FEET WITH NO
SIGNIFICANT WEATHER AND/OR OBSTRUCTIONS TO VISIBILITY.

 * = STATION DOES NOT REPORT PRECIPITATION (E.G. RAIN, SNOW, ETC.)
        OR FOG.

NJZ015>026-051500-
SOUTHERN NEW JERSEY

CITY           SKY/WX    TMP DP  RH WIND       PRES   REMARKS
POMONA         SUNNY     77  62  59 E17G23    30.23R
WILDWOOD*      PTSUNNY   75  64  69 NE15      30.24R
MILLVILLE      SUNNY     77  62  59 E13       30.24R
WRIGHTSTOWN    MOSUNNY   73  64  72 NE12      30.23S
MOUNT HOLLY    SUNNY     74  62  66 NE9       30.26R
TRENTON        SUNNY     74  59  59 E8        30.26R

$$
NJZ001>014-051500-
NORTHERN NEW JERSEY

CITY           SKY/WX    TMP DP  RH WIND       PRES   REMARKS
SUSSEX         SUNNY     71  51  49 N7        30.30R
ANDOVER*         N/A     71  59  65 NE6       30.30R
MORRISTOWN     SUNNY     75  63  64 NE7       30.29R
NEWARK         MOSUNNY   74  58  57 N9        30.28R
TETERBORO      SUNNY     73  54  51 VRB6      30.28R
CALDWELL       SUNNY     72  56  57 E8        30.29R
SOMERVILLE     SUNNY     75  60  59 CALM      30.26S
ALLAIRE*       PTSUNNY   70  57  64 NE12      30.27R
TOMS RIVER*    MOSUNNY   73  61  64 NE12      30.26R

$$
PAZ043-044-047-054-055-060>062-066>071-051500-
EASTERN PENNSYLVANIA

CITY           SKY/WX    TMP DP  RH WIND       PRES   REMARKS
PHILADELPHIA   PTSUNNY   77  61  57 E9        30.25S
NORTH PHILA    SUNNY     77  59  53 E12       30.28R
BLUE BELL      MOSUNNY   73  63  68 NE6       30.26S
DOYLESTOWN     SUNNY     72  59  63 NE7       30.27R
QUAKERTOWN*    SUNNY     73  61  64 NE8       30.29R
POTTSTOWN      MOSUNNY   72  63  73 NE6       30.28S
LANCASTER      CLOUDY    71  63  75 E5        30.28R
COATESVILLE    CLOUDY    70  64  83 NE3       30.28S
READING        SUNNY     73  60  63 CALM      30.26S
ALLENTOWN      MOSUNNY   74  61  63 E8        30.28S
MOUNT POCONO   SUNNY     68  58  70 E5        30.33R
HAZLETON       CLOUDY    68  61  77 CALM      30.35R
WILKES BARRE   MOSUNNY   72  61  68 CALM      30.30R

$$
DEZALL-MDZ008-012-015-019-020-051500-
DELAWARE AND EASTERN MARYLAND

CITY           SKY/WX    TMP DP  RH WIND       PRES   REMARKS
WILMINGTON     MOSUNNY   76  62  62 NE9       30.26R
DOVER          SUNNY     76  65  70 NE10      30.22R
GEORGETOWN     MOSUNNY   79  65  62 NE13G21   30.22R
EASTON         PTSUNNY   77  68  73 NE6       30.25
PATUXENT       PTSUNNY   79  67  66 NE10      30.21R
OCEAN CITY     MOSUNNY   77  68  73 NE15G21   30.19R
WALLOPS ISLAND PTSUNNY   80  70  71 E21       30.18R
CAMBRIDGE      MOSUNNY   77  64  65 NE8G16    30.20S
SALISBURY      MOSUNNY   78  66  66 NE16      30.19S

$$
PAZ001-021-NYZ056-072-MDZ011-DCZ001-051500-
OTHER NEARBY LOCATIONS

CITY           SKY/WX    TMP DP  RH WIND       PRES   REMARKS
HARRISBURG     PTSUNNY   74  63  68 S3        30.26S
STATE COLLEGE  CLOUDY    70  64  83 SE5       30.28R
WILLIAMSPORT   CLOUDY    71  63  75 E9        30.26S
BINGHAMTON     PTSUNNY   67  61  81 S7        30.31S
NEW YORK CITY  SUNNY     72  57  59 VRB6      30.31S
BALTIMORE      PTSUNNY   76  65  68 E9        30.24R
WASHINGTON DC  PTSUNNY   77  67  71 NE9       30.23S

$$



USA.gov is the U.S. government's official web portal to all federal, state and local government web resources and services.